[[{"header":{"parameterUnit":"m.s-1","parameterCategory":1,"la1":30.2991,"la2":30.254,"lo1":-89.0895,"lo2":-89.0444,"dy":0.0017,"dx":0.0017,"nx":28,"ny":28,"refTime":"2023-10-07T09:00:00:Z","depth":0,"parameterNumber":2,"parameterNumberName":"U-component_of_WINDS"},"data":[0,0,0,0,0,0,0,0,0,0,0,0,0,0,0,0,0,0,0,0,0,0,0,0,0,0,0,0,0,0,0,0,0,0,0,0,0,0,0,0,0,0,0,0,0,0,0,0,0,0,0,0,0,0,0,0,0,0,-2.4221,-2.4221,0,-2.4237,-2.4238,-2.4238,-2.4111,-2.4107,-2.4104,-2.41,-2.4119,-2.4122,-2.4126,0,0,0,0,0,0,0,0,0,0,0,0,0,-2.4081,-2.4084,-2.4221,-2.4221,-2.4222,-2.4237,-2.4238,-2.4238,-2.4111,-2.4107,-2.4103,-2.4099,-2.4117,-2.4122,-2.4126,0,0,0,0,0,0,0,0,0,0,0,0,0,-2.4124,-2.4086,-2.4221,-2.416,-2.4155,-2.4237,-2.4238,-2.4238,-2.4112,-2.4107,-2.4102,-2.4097,-2.4116,-2.4121,-2.4127,-2.4269,0,0,-2.4144,-2.4147,0,0,0,0,0,0,0,0,-2.4122,-2.413,-2.4169,-2.4165,-2.4159,-2.4167,-2.4195,-2.4248,-2.4114,-2.4129,-2.41,-2.4094,-2.4139,-2.4142,-2.4157,-2.427,-2.427,-2.4145,-2.4148,-2.4151,-2.4152,0,0,0,0,0,0,0,-2.4119,-2.4128,-2.4228,-2.417,-2.4164,-2.4132,-2.4133,-2.4204,-2.4164,-2.4127,-2.4118,-2.4121,-2.4135,-2.4152,-2.4157,-2.4271,-2.4145,-2.415,-2.4153,-2.4155,-2.45,-2.4505,0,0,0,0,0,0,-2.4124,-2.4127,-2.4227,-2.4228,-2.4127,-2.4139,-2.4139,-2.417,-2.4162,-2.4156,-2.4126,-2.4115,-2.4145,-2.415,-2.4157,-2.4323,-2.4151,-2.4156,-2.4159,-2.4494,-2.4501,-2.4507,0,0,0,0,0,0,-2.4122,-2.4135,-2.4226,-2.4175,-2.4184,-2.4147,-2.4182,-2.4173,-2.4189,-2.4162,-2.4154,-2.4151,-2.4141,-2.4149,-2.4242,-2.4322,-2.4159,-2.4164,-2.4488,-2.4496,-2.4504,-2.4657,0,0,0,0,0,0,-2.4118,-2.4134,-2.4188,-2.4177,-2.4187,-2.4312,-2.4187,-2.4177,-2.4199,-2.4186,-2.4183,-2.4177,-2.4137,-2.4234,-2.4247,-2.4327,-2.4168,-2.448,-2.4491,-2.4502,-2.4645,-2.467,-2.4691,0,0,0,0,0,-2.4114,-2.4231,-2.4191,-2.4204,-2.4254,-2.4317,-2.4322,-2.4274,-2.4206,-2.426,-2.4242,-2.4177,-2.431,-2.4245,-2.4259,-2.4341,-2.4475,-2.4488,-2.4501,-2.4634,-2.4665,-2.4691,0,0,0,0,0,0,-2.4253,-2.4228,-2.4184,-2.4301,-2.4312,-2.4295,-2.4362,-2.4308,-2.4338,-2.4325,-2.4263,-2.4263,-2.4367,-2.4362,-2.429,-2.4478,-2.4381,-2.4397,-2.4477,-2.4506,-2.4529,-2.4529,-2.4173,0,0,0,0,0,-2.4297,-2.435,-2.4325,-2.4431,-2.4438,-2.4399,-2.4425,-2.4386,-2.4395,-2.4399,-2.4388,-2.4399,-2.4443,-2.4474,-2.4513,-2.4642,-2.464,-2.4705,-2.4729,-2.4748,-2.4764,-2.4832,-2.4862,-2.455,-2.455,-2.4549,0,0,-2.439,-2.4382,-2.442,-2.4459,-2.4462,-2.4519,-2.4404,-2.4469,-2.451,-2.4409,-2.4497,-2.4488,-2.4497,-2.4609,-2.4657,-2.4608,-2.4849,-2.4764,-2.478,-2.4785,-2.4849,-2.4878,-2.4905,-2.4559,-2.4557,-2.4556,0,0,-2.4587,-2.4586,-2.4675,-2.468,-2.4687,-2.466,-2.4681,-2.4672,-2.4663,-2.4749,-2.4674,-2.4722,-2.4799,-2.4809,-2.4824,-2.5023,-2.4965,-2.5037,-2.516,-2.5227,-2.5252,-2.5273,-2.5346,-2.5372,-2.5052,-2.5052,-2.5052,0,-2.4702,-2.4784,-2.4727,-2.4797,-2.4816,-2.4725,-2.4814,-2.4822,-2.4842,-2.4858,-2.4802,-2.4897,-2.4896,-2.5009,-2.5058,-2.5072,-2.5095,-2.5038,-2.5252,-2.5274,-2.5293,-2.5361,-2.5389,-2.5061,-2.506,-2.5059,-2.5058,0,-2.4924,-2.4982,-2.5052,-2.5073,-2.51,-2.5179,-2.5135,-2.5169,-2.5127,-2.5106,-2.5195,-2.519,-2.5227,-2.525,-2.521,-2.5358,-2.5327,-2.5263,-2.5165,-2.5332,-2.5396,-2.5422,-2.5074,-2.5071,-2.5068,-2.5066,0,0,-2.5214,-2.52,-2.5227,-2.5235,-2.5235,-2.5279,-2.5353,-2.5388,-2.542,-2.5435,-2.5497,-2.5563,-2.5503,-2.552,-2.548,-2.5539,-2.5699,-2.5467,-2.5467,-2.5513,-2.5863,-2.5913,-2.5945,-2.5659,-2.5664,-2.5667,-2.5863,0,-2.5408,-2.5535,-2.5485,-2.5616,-2.5669,-2.5583,-2.5647,-2.5655,-2.5636,-2.5678,-2.5657,-2.5707,-2.5623,-2.5633,-2.5687,-2.5668,-2.5769,-2.5653,-2.5717,-2.572,-2.5721,-2.5977,-2.6031,-2.6216,-2.5887,-2.5891,-2.5894,0,-2.5653,-2.5678,-2.5815,-2.5804,-2.5825,-2.5884,-2.5912,-2.5953,-2.5959,-2.5941,-2.5959,-2.5906,-2.5978,-2.5878,-2.5978,-2.59,-2.5923,-2.5917,-2.5923,-2.593,-2.582,-2.5993,-2.6273,-2.6302,-2.5932,-2.5929,-2.5926,0,-2.5853,-2.592,-2.6011,-2.602,-2.601,-2.6054,-2.6052,-2.6052,-2.6076,-2.61,-2.6115,-2.6147,-2.6166,-2.6192,-2.6149,-2.608,-2.6255,-2.6151,-2.6244,-2.6245,-2.6288,-2.6286,-2.6578,-2.6298,-2.6298,-2.6297,-2.6296,0,-2.6077,-2.6164,-2.61,-2.6157,-2.6252,-2.6193,-2.6289,-2.6277,-2.6278,-2.633,-2.6256,-2.6307,-2.6245,-2.629,-2.6256,-2.6344,-2.6352,-2.6341,-2.6332,-2.6349,-2.6351,-2.6366,-2.6353,-2.6304,-2.6303,-2.6301,-2.63,0,-2.6318,-2.6278,-2.6372,-2.6353,-2.6351,-2.6422,-2.6407,-2.6458,-2.6433,-2.65,-2.6513,-2.6474,-2.6523,-2.6481,-2.6529,-2.6506,-2.6624,-2.6594,-2.6622,-2.6615,-2.6711,-2.6704,-2.7025,-2.7065,-2.6757,-2.676,-2.6762,0,-2.6465,-2.653,-2.6519,-2.6548,-2.6551,-2.6599,-2.6623,-2.6566,-2.6594,-2.6605,-2.6655,-2.6697,-2.6729,-2.681,-2.6787,-2.6823,-2.6795,-2.6905,-2.6801,-2.6817,-2.68,-2.6798,-2.6805,-2.6928,-2.6932,-2.6935,-2.6937,0,-2.6731,-2.6708,-2.6745,-2.6776,-2.6806,-2.6827,-2.6843,-2.6871,-2.6813,-2.6848,-2.6897,-2.6921,-2.6968,-2.7012,-2.704,-2.7037,-2.6979,-2.6969,-2.6993,-2.7014,-2.7028,-2.7024,-2.6683,-2.6963,-2.6961,-2.6959,-2.6957,-2.6956,-2.6931,-2.6985,-2.6986,-2.7029,-2.7034,-2.705,-2.7098,-2.7078,-2.7118,-2.7152,-2.7115,-2.7175,-2.7178,-2.7209,-2.7213,-2.7259,-2.7213,-2.7247,-2.7256,-2.7267,-2.7281,-2.7018,-2.7264,-2.7263,-2.7262,-2.7261,-2.7261,0,-2.7195,-2.7191,-2.7231,-2.7255,-2.7289,-2.7228,-2.7242,-2.7275,-2.7329,-2.7336,-2.7367,-2.7423,-2.7464,-2.7443,-2.7479,-2.752,-2.7494,-2.7532,-2.753,-2.753,-2.7319,-2.7296,-2.7552,-2.7552,-2.7552,-2.7552,-2.7552,-2.7552,-2.7337,-2.7426,-2.7402,-2.7493,-2.7487,-2.7544,-2.7558,-2.7572,-2.7577,-2.7643,-2.7677,-2.7662,-2.7658,-2.7692,-2.7727,-2.772,-2.7738,-2.7786,-2.7769,-2.7573,-2.7545,-2.7518,-2.7496,-2.7789,-2.779,-2.7976,-2.7978,-2.7979]},{"header":{"parameterUnit":"m.s-1","parameterCategory":1,"la1":30.2991,"la2":30.254,"lo1":-89.0895,"lo2":-89.0444,"dy":0.0017,"dx":0.0017,"nx":28,"ny":28,"refTime":"2023-10-07T09:00:00:Z","depth":0,"parameterNumber":3,"parameterNumberName":"V-component_of_WINDS"},"data":[0,0,0,0,0,0,0,0,0,0,0,0,0,0,0,0,0,0,0,0,0,0,0,0,0,0,0,0,0,0,0,0,0,0,0,0,0,0,0,0,0,0,0,0,0,0,0,0,0,0,0,0,0,0,0,0,0,0,-6.9166,-6.9166,0,-6.9233,-6.9234,-6.9235,-6.9105,-6.9101,-6.9097,-6.9092,-6.9156,-6.9161,-6.9167,0,0,0,0,0,0,0,0,0,0,0,0,0,-6.8918,-6.8923,-6.9166,-6.9166,-6.9167,-6.9233,-6.9234,-6.9235,-6.9106,-6.9101,-6.9095,-6.9091,-6.9154,-6.9161,-6.9167,0,0,0,0,0,0,0,0,0,0,0,0,0,-6.901,-6.8925,-6.9165,-6.9111,-6.9107,-6.9233,-6.9234,-6.9235,-6.9107,-6.91,-6.9094,-6.9088,-6.9152,-6.916,-6.9168,-6.9349,0,0,-6.9194,-6.9198,0,0,0,0,0,0,0,0,-6.9005,-6.9019,-6.9118,-6.9115,-6.9111,-6.9154,-6.917,-6.9273,-6.9108,-6.9107,-6.9092,-6.9085,-6.916,-6.9168,-6.9194,-6.9352,-6.9354,-6.9195,-6.92,-6.9204,-6.9206,0,0,0,0,0,0,0,-6.8998,-6.9015,-6.9192,-6.912,-6.9115,-6.9081,-6.9087,-6.9189,-6.9168,-6.9106,-6.9097,-6.9107,-6.9157,-6.9186,-6.9195,-6.9355,-6.9195,-6.9202,-6.9208,-6.9211,-6.9662,-6.9669,0,0,0,0,0,0,-6.9,-6.9011,-6.919,-6.9194,-6.9041,-6.9091,-6.9097,-6.9147,-6.9167,-6.9164,-6.9113,-6.9101,-6.9175,-6.9185,-6.9196,-6.9408,-6.9204,-6.9212,-6.9217,-6.9656,-6.9664,-6.9671,0,0,0,0,0,0,-6.8995,-6.9017,-6.9187,-6.91,-6.9119,-6.9102,-6.9158,-6.9151,-6.9181,-6.9172,-6.9167,-6.9147,-6.917,-6.9184,-6.9312,-6.9408,-6.9216,-6.9223,-6.9647,-6.9658,-6.9668,-6.9833,0,0,0,0,0,0,-6.8989,-6.9016,-6.9086,-6.9103,-6.9124,-6.9304,-6.9164,-6.9157,-6.9196,-6.9182,-6.9202,-6.92,-6.9166,-6.93,-6.932,-6.9416,-6.923,-6.9639,-6.9652,-6.9664,-6.9819,-6.9848,-6.9872,0,0,0,0,0,-6.898,-6.9129,-6.909,-6.9113,-6.9212,-6.931,-6.9322,-6.9282,-6.9205,-6.9274,-6.9268,-6.9199,-6.9395,-6.9314,-6.9336,-6.9436,-6.9632,-6.9648,-6.9663,-6.9807,-6.9842,-6.9872,0,0,0,0,0,0,-6.9122,-6.913,-6.9087,-6.9247,-6.9279,-6.9288,-6.9374,-6.9321,-6.9374,-6.9358,-6.9304,-6.931,-6.9448,-6.9454,-6.9365,-6.9611,-6.95,-6.9521,-6.9601,-6.9635,-6.9661,-6.9656,-6.9237,0,0,0,0,0,-6.9173,-6.9254,-6.9255,-6.9395,-6.9414,-6.9392,-6.9433,-6.94,-6.943,-6.9442,-6.9445,-6.9476,-6.9544,-6.959,-6.9652,-6.9819,-6.9821,-6.9898,-6.9925,-6.9947,-6.9966,-7.0053,-7.0087,-6.9722,-6.9722,-6.9722,0,0,-6.9276,-6.9291,-6.9345,-6.9424,-6.9445,-6.9529,-6.9404,-6.9497,-6.9558,-6.9456,-6.9577,-6.958,-6.961,-6.9759,-6.9824,-6.9768,-7.0067,-6.9967,-6.9985,-6.9991,-7.0072,-7.0107,-7.0138,-6.9733,-6.9731,-6.9729,0,0,-6.9508,-6.9528,-6.9647,-6.9671,-6.9705,-6.9689,-6.9717,-6.9735,-6.9734,-6.9855,-6.978,-6.9849,-6.9968,-6.9992,-7.002,-7.0261,-7.0199,-7.0283,-7.0422,-7.0508,-7.0537,-7.0562,-7.0647,-7.0678,-7.0301,-7.0301,-7.0302,0,-6.9632,-6.9757,-6.9714,-6.9813,-6.9849,-6.9762,-6.988,-6.9905,-6.9957,-6.9983,-6.992,-7.0067,-7.0081,-7.0233,-7.0292,-7.0318,-7.0347,-7.028,-7.0537,-7.0561,-7.0584,-7.0664,-7.0696,-7.0311,-7.031,-7.0309,-7.0308,0,-6.9907,-6.9995,-7.0086,-7.014,-7.0187,-7.0295,-7.0266,-7.0318,-7.028,-7.027,-7.0393,-7.0407,-7.047,-7.0504,-7.0468,-7.0651,-7.0615,-7.0546,-7.0433,-7.063,-7.0704,-7.0734,-7.0325,-7.0322,-7.0319,-7.0316,0,0,-7.023,-7.026,-7.0294,-7.0317,-7.0348,-7.0414,-7.0517,-7.058,-7.0625,-7.0664,-7.0747,-7.085,-7.0786,-7.0818,-7.0783,-7.0859,-7.1047,-7.0779,-7.0779,-7.0828,-7.1248,-7.1299,-7.1336,-7.1006,-7.1012,-7.1017,-7.1245,0,-7.0459,-7.064,-7.0603,-7.0779,-7.0858,-7.0776,-7.0866,-7.0893,-7.0887,-7.0951,-7.0942,-7.1016,-7.0926,-7.0944,-7.1016,-7.1009,-7.113,-7.0992,-7.1082,-7.1086,-7.1077,-7.1375,-7.143,-7.1644,-7.1274,-7.1279,-7.1282,0,-7.0751,-7.0802,-7.0987,-7.1004,-7.1036,-7.1118,-7.1172,-7.1236,-7.1264,-7.1254,-7.129,-7.1241,-7.134,-7.1228,-7.1364,-7.1271,-7.1305,-7.1307,-7.1315,-7.1321,-7.1195,-7.1388,-7.1712,-7.1744,-7.1328,-7.1324,-7.1321,0,-7.0967,-7.1082,-7.1207,-7.1229,-7.1253,-7.1312,-7.1325,-7.1347,-7.1387,-7.1434,-7.1459,-7.1517,-7.1549,-7.1593,-7.156,-7.1481,-7.1701,-7.1586,-7.1694,-7.1695,-7.1743,-7.174,-7.2076,-7.1767,-7.1767,-7.1766,-7.1765,0,-7.1226,-7.1342,-7.1304,-7.1381,-7.1507,-7.1463,-7.1588,-7.1591,-7.1612,-7.1686,-7.1618,-7.1688,-7.1641,-7.1706,-7.1681,-7.1797,-7.1811,-7.1804,-7.1796,-7.181,-7.1811,-7.1831,-7.1815,-7.1775,-7.1773,-7.1771,-7.177,0,-7.1488,-7.1468,-7.1599,-7.1611,-7.1617,-7.1709,-7.1719,-7.1789,-7.1777,-7.1872,-7.1891,-7.1872,-7.1946,-7.1918,-7.1996,-7.1978,-7.2126,-7.2099,-7.2117,-7.211,-7.2219,-7.2209,-7.2579,-7.2625,-7.2287,-7.2291,-7.2293,0,-7.1655,-7.1742,-7.1765,-7.181,-7.1828,-7.1903,-7.1943,-7.1903,-7.1948,-7.1987,-7.2052,-7.2121,-7.2173,-7.2295,-7.2287,-7.2346,-7.2318,-7.2444,-7.2327,-7.2338,-7.2319,-7.2314,-7.2322,-7.2467,-7.2471,-7.2474,-7.2477,0,-7.1952,-7.1938,-7.2001,-7.2061,-7.2112,-7.2157,-7.2195,-7.2235,-7.2197,-7.225,-7.2326,-7.2367,-7.2448,-7.2516,-7.2568,-7.2578,-7.2521,-7.2514,-7.2542,-7.2557,-7.2564,-7.2561,-7.218,-7.2506,-7.2503,-7.2501,-7.2499,-7.2498,-7.2171,-7.2244,-7.2271,-7.2343,-7.2368,-7.2406,-7.2472,-7.2469,-7.2533,-7.2596,-7.2568,-7.2655,-7.268,-7.2745,-7.2763,-7.2829,-7.2779,-7.282,-7.283,-7.2841,-7.2855,-7.2555,-7.2838,-7.2837,-7.2837,-7.2836,-7.2835,0,-7.2463,-7.2477,-7.2544,-7.2601,-7.2657,-7.26,-7.2639,-7.269,-7.2768,-7.2797,-7.2851,-7.2937,-7.3003,-7.3,-7.306,-7.3114,-7.3089,-7.3131,-7.3126,-7.3129,-7.2896,-7.2865,-7.315,-7.315,-7.315,-7.3149,-7.3149,-7.3149,-7.2622,-7.2743,-7.2732,-7.2864,-7.2876,-7.2963,-7.299,-7.3023,-7.3046,-7.3146,-7.3201,-7.32,-7.3215,-7.3276,-7.3333,-7.333,-7.3355,-7.3407,-7.3394,-7.3176,-7.3145,-7.3115,-7.3086,-7.3413,-7.3413,-7.3621,-7.3623,-7.3625]}]]